Time,TemperatureF,DewpointF,PressureIn,WindDirection,WindDirectionDegrees,WindSpeedMPH,WindSpeedGustMPH,Humidity,HourlyPrecipIn,Conditions,Clouds,dailyrainin,SoftwareType,DateUTC
2013-08-21 00:00:00,73.9,61.8,30.03,ESE,120,0.0,8.0,66,0.00,,---,0.00,VWS V14.01,2013-08-21 04:00:00,
2013-08-21 00:01:00,73.9,61.8,30.03,ESE,123,0.0,1.0,66,0.00,,---,0.00,VWS V14.01,2013-08-21 04:01:00,
2013-08-21 00:06:00,73.9,62.3,30.03,SSE,157,0.0,6.0,67,0.00,,---,0.00,VWS V14.01,2013-08-21 04:06:00,
2013-08-21 00:11:00,73.7,62.1,30.03,SE,128,1.0,7.0,67,0.00,,---,0.00,VWS V14.01,2013-08-21 04:11:00,
2013-08-21 00:16:00,73.5,62.3,30.02,SSE,160,1.0,7.0,68,0.00,,---,0.00,VWS V14.01,2013-08-21 04:16:00,
2013-08-21 00:21:00,73.5,62.3,30.02,ESE,103,3.0,7.0,68,0.00,,---,0.00,VWS V14.01,2013-08-21 04:21:00,
2013-08-21 00:26:00,73.5,62.3,30.02,South,169,3.0,7.0,68,0.00,,---,0.00,VWS V14.01,2013-08-21 04:26:00,
2013-08-21 00:30:00,74.7,62.2,30.03,WSW,237,0.0,6.0,65,0.00,,---,0.00,VWS V14.01,2013-08-21 04:30:00,
2013-08-21 00:31:00,73.5,62.3,30.02,East,97,2.0,3.0,68,0.00,,---,0.00,VWS V14.01,2013-08-21 04:31:00,
2013-08-21 00:37:00,73.5,62.3,30.02,West,272,1.0,5.0,68,0.00,,---,0.00,VWS V14.01,2013-08-21 04:37:00,
2013-08-21 00:42:00,73.3,62.1,30.02,ESE,117,0.0,5.0,68,0.00,,---,0.00,VWS V14.01,2013-08-21 04:42:00,
2013-08-21 00:47:00,73.3,62.1,30.03,SE,143,0.0,6.0,68,0.00,,---,0.00,VWS V14.01,2013-08-21 04:47:00,
2013-08-21 00:52:00,73.2,62.0,30.03,South,169,0.0,6.0,68,0.00,,---,0.00,VWS V14.01,2013-08-21 04:52:00,
2013-08-21 00:57:00,73.0,61.8,30.03,SE,140,2.0,6.0,68,0.00,,---,0.00,VWS V14.01,2013-08-21 04:57:00,
2013-08-21 01:00:00,73.9,61.8,30.03,ESE,120,1.0,8.0,66,0.00,,---,0.00,VWS V14.01,2013-08-21 05:00:00,
2013-08-21 01:02:00,72.7,61.5,30.03,SE,138,2.0,3.0,68,0.00,,---,0.00,VWS V14.01,2013-08-21 05:02:00,
2013-08-21 01:07:00,72.7,61.5,30.03,East,99,0.0,3.0,68,0.00,,---,0.00,VWS V14.01,2013-08-21 05:07:00,
2013-08-21 01:12:00,72.7,62.4,30.03,ESE,119,0.0,6.0,70,0.00,,---,0.00,VWS V14.01,2013-08-21 05:12:00,
2013-08-21 01:17:00,72.7,62.0,30.03,SE,126,0.0,6.0,69,0.00,,---,0.00,VWS V14.01,2013-08-21 05:17:00,
2013-08-21 01:22:00,72.7,62.0,30.03,ESE,123,0.0,6.0,69,0.00,,---,0.00,VWS V14.01,2013-08-21 05:22:00,
2013-08-21 01:27:00,72.5,62.2,30.03,SSE,164,0.0,6.0,70,0.00,,---,0.00,VWS V14.01,2013-08-21 05:27:00,
2013-08-21 01:30:00,73.7,62.1,30.02,SSE,162,1.0,7.0,67,0.00,,---,0.00,VWS V14.01,2013-08-21 05:30:00,
2013-08-21 01:32:00,72.3,62.0,30.02,SSW,203,0.0,3.0,70,0.00,,---,0.00,VWS V14.01,2013-08-21 05:32:00,
2013-08-21 01:37:00,72.3,62.0,30.02,SE,134,4.0,7.0,70,0.00,,---,0.00,VWS V14.01,2013-08-21 05:37:00,
2013-08-21 01:42:00,72.3,62.0,30.02,SE,126,1.0,7.0,70,0.00,,---,0.00,VWS V14.01,2013-08-21 05:42:00,
2013-08-21 01:47:00,72.3,62.0,30.02,ESE,107,0.0,7.0,70,0.00,,---,0.00,VWS V14.01,2013-08-21 05:47:00,
2013-08-21 01:52:00,72.1,61.8,30.02,East,82,3.0,7.0,70,0.00,,---,0.00,VWS V14.01,2013-08-21 05:52:00,
2013-08-21 01:57:00,72.1,61.8,30.02,SSE,162,0.0,7.0,70,0.00,,---,0.00,VWS V14.01,2013-08-21 05:57:00,
2013-08-21 02:00:00,72.8,61.6,30.03,South,171,1.0,6.0,68,0.00,,---,0.00,VWS V14.01,2013-08-21 06:00:00,
2013-08-21 02:02:00,72.0,62.1,30.02,SE,124,1.0,2.0,71,0.00,,---,0.00,VWS V14.01,2013-08-21 06:02:00,
2013-08-21 02:07:00,72.0,62.1,30.02,ESE,102,2.0,7.0,71,0.00,,---,0.00,VWS V14.01,2013-08-21 06:07:00,
2013-08-21 02:12:00,72.0,62.1,30.02,East,85,1.0,7.0,71,0.00,,---,0.00,VWS V14.01,2013-08-21 06:12:00,
2013-08-21 02:17:00,72.0,62.1,30.02,SSW,198,6.0,7.0,71,0.00,,---,0.00,VWS V14.01,2013-08-21 06:17:00,
2013-08-21 02:22:00,71.8,61.9,30.02,ESE,113,0.0,7.0,71,0.00,,---,0.00,VWS V14.01,2013-08-21 06:22:00,
2013-08-21 02:27:00,71.8,61.9,30.02,ESE,106,1.0,7.0,71,0.00,,---,0.00,VWS V14.01,2013-08-21 06:27:00,
2013-08-21 02:30:00,72.3,62.0,30.02,SE,140,3.0,6.0,70,0.00,,---,0.00,VWS V14.01,2013-08-21 06:30:00,
2013-08-21 02:32:00,71.8,61.9,30.02,ESE,103,0.0,5.0,71,0.00,,---,0.00,VWS V14.01,2013-08-21 06:32:00,
2013-08-21 02:37:00,71.8,61.9,30.02,South,185,0.0,5.0,71,0.00,,---,0.00,VWS V14.01,2013-08-21 06:37:00,
2013-08-21 02:42:00,71.6,61.7,30.02,South,171,3.0,6.0,71,0.00,,---,0.00,VWS V14.01,2013-08-21 06:42:00,
2013-08-21 02:47:00,71.6,61.7,30.01,ESE,117,3.0,6.0,71,0.00,,---,0.00,VWS V14.01,2013-08-21 06:47:00,
2013-08-21 02:52:00,71.6,61.7,30.01,SSE,152,1.0,6.0,71,0.00,,---,0.00,VWS V14.01,2013-08-21 06:52:00,
2013-08-21 02:57:00,71.6,61.7,30.01,SSE,168,5.0,6.0,71,0.00,,---,0.00,VWS V14.01,2013-08-21 06:57:00,
2013-08-21 03:00:00,72.0,61.7,30.02,SE,134,0.0,7.0,70,0.00,,---,0.00,VWS V14.01,2013-08-21 07:00:00,
2013-08-21 03:02:00,71.6,61.7,30.01,SE,126,1.0,2.0,71,0.00,,---,0.00,VWS V14.01,2013-08-21 07:02:00,
2013-08-21 03:07:00,71.6,61.7,30.01,WSW,256,1.0,4.0,71,0.00,,---,0.00,VWS V14.01,2013-08-21 07:07:00,
2013-08-21 03:13:00,71.5,62.0,30.01,ESE,114,1.0,4.0,72,0.00,,---,0.00,VWS V14.01,2013-08-21 07:13:00,
2013-08-21 03:18:00,71.5,62.0,30.01,SSE,154,0.0,6.0,72,0.00,,---,0.00,VWS V14.01,2013-08-21 07:18:00,
2013-08-21 03:23:00,71.5,62.0,30.01,SSW,212,0.0,6.0,72,0.00,,---,0.00,VWS V14.01,2013-08-21 07:23:00,
2013-08-21 03:28:00,71.5,62.0,30.01,SW,219,2.0,6.0,72,0.00,,---,0.00,VWS V14.01,2013-08-21 07:28:00,
2013-08-21 03:30:00,71.8,61.9,30.02,ESE,120,0.0,7.0,71,0.00,,---,0.00,VWS V14.01,2013-08-21 07:30:00,
2013-08-21 03:33:00,71.3,61.8,30.00,SE,126,0.0,6.0,72,0.00,,---,0.00,VWS V14.01,2013-08-21 07:33:00,
2013-08-21 03:38:00,71.3,61.8,30.00,SSW,200,5.0,6.0,72,0.00,,---,0.00,VWS V14.01,2013-08-21 07:38:00,
2013-08-21 03:43:00,71.1,61.6,30.00,East,88,2.0,6.0,72,0.00,,---,0.00,VWS V14.01,2013-08-21 07:43:00,
2013-08-21 03:48:00,71.3,61.8,30.00,WSW,244,6.0,7.0,72,0.00,,---,0.00,VWS V14.01,2013-08-21 07:48:00,
2013-08-21 03:53:00,71.1,61.6,30.00,East,97,0.0,7.0,72,0.00,,---,0.00,VWS V14.01,2013-08-21 07:53:00,
2013-08-21 03:58:00,70.9,61.8,30.00,SE,128,2.0,7.0,73,0.00,,---,0.00,VWS V14.01,2013-08-21 07:58:00,
2013-08-21 04:00:00,71.6,61.7,30.01,East,79,1.0,6.0,71,0.00,,---,0.00,VWS V14.01,2013-08-21 08:00:00,
2013-08-21 04:03:00,70.9,61.8,30.00,East,83,2.0,3.0,73,0.00,,---,0.00,VWS V14.01,2013-08-21 08:03:00,
2013-08-21 04:08:00,70.9,61.8,30.00,WNW,287,1.0,6.0,73,0.00,,---,0.00,VWS V14.01,2013-08-21 08:08:00,
2013-08-21 04:13:00,70.9,61.8,30.00,SW,232,1.0,6.0,73,0.00,,---,0.00,VWS V14.01,2013-08-21 08:13:00,
2013-08-21 04:18:00,70.9,61.8,30.00,ESE,121,1.0,6.0,73,0.00,,---,0.00,VWS V14.01,2013-08-21 08:18:00,
2013-08-21 04:23:00,70.8,62.1,30.00,SW,220,2.0,7.0,74,0.00,,---,0.00,VWS V14.01,2013-08-21 08:23:00,
2013-08-21 04:28:00,70.8,62.1,30.00,WNW,302,1.0,7.0,74,0.00,,---,0.00,VWS V14.01,2013-08-21 08:28:00,
2013-08-21 04:30:00,71.5,62.0,30.00,East,97,2.0,6.0,72,0.00,,---,0.00,VWS V14.01,2013-08-21 08:30:00,
2013-08-21 04:33:00,70.8,62.1,30.01,SE,141,1.0,3.0,74,0.00,,---,0.00,VWS V14.01,2013-08-21 08:33:00,
2013-08-21 04:38:00,70.6,61.9,30.01,SSW,192,0.0,5.0,74,0.00,,---,0.00,VWS V14.01,2013-08-21 08:38:00,
2013-08-21 04:43:00,70.6,62.3,30.01,ENE,64,1.0,5.0,75,0.00,,---,0.00,VWS V14.01,2013-08-21 08:43:00,
2013-08-21 04:48:00,70.6,62.3,30.01,SSE,148,0.0,6.0,75,0.00,,---,0.00,VWS V14.01,2013-08-21 08:48:00,
2013-08-21 04:53:00,70.4,62.1,30.01,SSW,205,3.0,6.0,75,0.00,,---,0.00,VWS V14.01,2013-08-21 08:53:00,
2013-08-21 04:58:00,70.3,62.4,30.01,ESE,114,2.0,6.0,76,0.00,,---,0.00,VWS V14.01,2013-08-21 08:58:00,
2013-08-21 05:00:00,70.9,61.8,30.00,East,86,3.0,7.0,73,0.00,,---,0.00,VWS V14.01,2013-08-21 09:00:00,
2013-08-21 05:03:00,70.4,62.5,30.01,ESE,113,0.0,5.0,76,0.00,,---,0.00,VWS V14.01,2013-08-21 09:03:00,
2013-08-21 05:08:00,70.4,62.5,30.01,ESE,113,3.0,5.0,76,0.00,,---,0.00,VWS V14.01,2013-08-21 09:08:00,
2013-08-21 05:13:00,70.3,62.4,30.01,SE,124,0.0,5.0,76,0.00,,---,0.00,VWS V14.01,2013-08-21 09:13:00,
2013-08-21 05:18:00,70.3,62.8,30.01,East,83,0.0,5.0,77,0.00,,---,0.00,VWS V14.01,2013-08-21 09:18:00,
2013-08-21 05:23:00,70.3,62.8,30.01,SE,140,0.0,5.0,77,0.00,,---,0.00,VWS V14.01,2013-08-21 09:23:00,
2013-08-21 05:28:00,70.1,62.9,30.01,ESE,110,0.0,5.0,78,0.00,,---,0.00,VWS V14.01,2013-08-21 09:28:00,
2013-08-21 05:30:00,70.8,62.1,30.01,ESE,116,2.0,7.0,74,0.00,,---,0.00,VWS V14.01,2013-08-21 09:30:00,
2013-08-21 05:33:00,69.9,62.7,30.01,ENE,68,2.0,2.0,78,0.00,,---,0.00,VWS V14.01,2013-08-21 09:33:00,
2013-08-21 05:38:00,69.8,63.0,30.01,ESE,116,0.0,2.0,79,0.00,,---,0.00,VWS V14.01,2013-08-21 09:38:00,
2013-08-21 05:43:00,69.6,62.8,30.01,SSE,147,0.0,3.0,79,0.00,,---,0.00,VWS V14.01,2013-08-21 09:43:00,
2013-08-21 05:48:00,69.6,62.8,30.01,South,179,0.0,3.0,79,0.00,,---,0.00,VWS V14.01,2013-08-21 09:48:00,
2013-08-21 05:54:00,69.6,62.8,30.01,ESE,109,0.0,3.0,79,0.00,,---,0.00,VWS V14.01,2013-08-21 09:54:00,
2013-08-21 05:59:00,69.4,63.0,30.01,ESE,102,0.0,3.0,80,0.00,,---,0.00,VWS V14.01,2013-08-21 09:59:00,
2013-08-21 06:00:00,70.3,62.4,30.01,SSE,167,1.0,6.0,76,0.00,,---,0.00,VWS V14.01,2013-08-21 10:00:00,
2013-08-21 06:04:00,69.4,63.0,30.01,SE,137,0.0,3.0,80,0.00,,---,0.00,VWS V14.01,2013-08-21 10:04:00,
2013-08-21 06:09:00,69.3,62.9,30.01,ESE,120,1.0,5.0,80,0.00,,---,0.00,VWS V14.01,2013-08-21 10:09:00,
2013-08-21 06:14:00,69.3,62.9,30.01,SE,138,0.0,5.0,80,0.00,,---,0.00,VWS V14.01,2013-08-21 10:14:00,
2013-08-21 06:19:00,69.3,62.9,30.01,SE,145,0.0,5.0,80,0.00,,---,0.00,VWS V14.01,2013-08-21 10:19:00,
2013-08-21 06:24:00,69.3,62.9,30.01,SE,134,0.0,5.0,80,0.00,,---,0.00,VWS V14.01,2013-08-21 10:24:00,
2013-08-21 06:29:00,69.1,63.0,30.01,ESE,114,0.0,5.0,81,0.00,,---,0.00,VWS V14.01,2013-08-21 10:29:00,
2013-08-21 06:30:00,69.9,62.7,30.01,SW,232,1.0,5.0,78,0.00,,---,0.00,VWS V14.01,2013-08-21 10:30:00,
2013-08-21 06:34:00,69.3,63.2,30.01,East,89,3.0,3.0,81,0.00,,---,0.00,VWS V14.01,2013-08-21 10:34:00,
2013-08-21 06:39:00,69.3,63.2,30.01,ESE,113,0.0,4.0,81,0.00,,---,0.00,VWS V14.01,2013-08-21 10:39:00,
2013-08-21 06:44:00,69.3,62.9,30.01,SE,133,0.0,4.0,80,0.00,,---,0.00,VWS V14.01,2013-08-21 10:44:00,
2013-08-21 06:49:00,69.3,63.2,30.01,SE,126,0.0,6.0,81,0.00,,---,0.00,VWS V14.01,2013-08-21 10:49:00,
2013-08-21 06:54:00,69.3,63.2,30.01,SSE,158,0.0,6.0,81,0.00,,---,0.00,VWS V14.01,2013-08-21 10:54:00,
2013-08-21 06:59:00,69.1,63.0,30.01,ENE,69,1.0,6.0,81,0.00,,---,0.00,VWS V14.01,2013-08-21 10:59:00,
2013-08-21 07:00:00,69.4,63.0,30.01,ESE,102,2.0,3.0,80,0.00,,---,0.00,VWS V14.01,2013-08-21 11:00:00,
2013-08-21 07:04:00,69.3,63.2,30.01,ESE,123,1.0,7.0,81,0.00,,---,0.00,VWS V14.01,2013-08-21 11:04:00,
2013-08-21 07:09:00,69.3,63.2,30.01,East,99,2.0,7.0,81,0.00,,---,0.00,VWS V14.01,2013-08-21 11:09:00,
2013-08-21 07:14:00,69.4,63.3,30.01,ESE,110,2.0,9.0,81,0.00,,---,0.00,VWS V14.01,2013-08-21 11:14:00,
2013-08-21 07:19:00,69.4,63.3,30.01,ESE,121,0.0,9.0,81,0.00,,---,0.00,VWS V14.01,2013-08-21 11:19:00,
2013-08-21 07:24:00,69.6,63.5,30.01,ESE,106,1.0,9.0,81,0.00,,---,0.00,VWS V14.01,2013-08-21 11:24:00,
2013-08-21 07:29:00,69.6,63.5,30.01,ESE,112,0.0,9.0,81,0.00,,---,0.00,VWS V14.01,2013-08-21 11:29:00,
2013-08-21 07:30:00,69.1,63.0,30.01,ESE,114,0.0,5.0,81,0.00,,---,0.00,VWS V14.01,2013-08-21 11:30:00,
2013-08-21 07:34:00,69.8,63.7,30.01,ESE,112,2.0,4.0,81,0.00,,---,0.00,VWS V14.01,2013-08-21 11:34:00,
2013-08-21 07:39:00,70.1,63.7,30.01,South,181,0.0,5.0,80,0.00,,---,0.00,VWS V14.01,2013-08-21 11:39:00,
2013-08-21 07:44:00,70.3,63.8,30.01,South,174,1.0,5.0,80,0.00,,---,0.00,VWS V14.01,2013-08-21 11:44:00,
2013-08-21 07:49:00,70.6,63.8,30.01,ESE,106,1.0,5.0,79,0.00,,---,0.00,VWS V14.01,2013-08-21 11:49:00,
2013-08-21 07:54:00,70.9,64.1,30.01,ESE,121,1.0,5.0,79,0.00,,---,0.00,VWS V14.01,2013-08-21 11:54:00,
2013-08-21 07:59:00,71.3,64.1,30.01,East,89,1.0,5.0,78,0.00,,---,0.00,VWS V14.01,2013-08-21 11:59:00,
2013-08-21 08:00:00,69.1,63.0,30.01,ESE,112,2.0,6.0,81,0.00,,---,0.00,VWS V14.01,2013-08-21 12:00:00,
2013-08-21 08:04:00,71.6,64.4,30.02,SSE,158,1.0,6.0,78,0.00,,---,0.00,VWS V14.01,2013-08-21 12:04:00,
2013-08-21 08:09:00,71.8,64.2,30.02,SE,138,0.0,6.0,77,0.00,,---,0.00,VWS V14.01,2013-08-21 12:09:00,
2013-08-21 08:14:00,72.1,64.1,30.02,East,89,2.0,7.0,76,0.00,,---,0.00,VWS V14.01,2013-08-21 12:14:00,
2013-08-21 08:19:00,72.5,64.9,30.02,East,83,0.0,7.0,77,0.00,,---,0.00,VWS V14.01,2013-08-21 12:19:00,
2013-08-21 08:24:00,72.8,64.8,30.02,ESE,102,3.0,7.0,76,0.00,,---,0.00,VWS V14.01,2013-08-21 12:24:00,
2013-08-21 08:30:00,73.2,64.8,30.01,South,175,0.0,7.0,75,0.00,,---,0.00,VWS V14.01,2013-08-21 12:30:00,
2013-08-21 08:35:00,73.5,65.1,30.01,SW,223,0.0,4.0,75,0.00,,---,0.00,VWS V14.01,2013-08-21 12:35:00,
2013-08-21 08:40:00,73.9,65.1,30.01,WNW,291,3.0,7.0,74,0.00,,---,0.00,VWS V14.01,2013-08-21 12:40:00,
2013-08-21 08:45:00,74.0,65.2,30.02,ESE,121,1.0,9.0,74,0.00,,---,0.00,VWS V14.01,2013-08-21 12:45:00,
2013-08-21 08:50:00,74.4,65.6,30.02,South,169,1.0,9.0,74,0.00,,---,0.00,VWS V14.01,2013-08-21 12:50:00,
2013-08-21 08:55:00,74.7,65.1,30.02,South,174,5.0,9.0,72,0.00,,---,0.00,VWS V14.01,2013-08-21 12:55:00,
2013-08-21 09:00:00,75.3,65.7,30.02,SSW,196,0.0,9.0,72,0.00,,---,0.00,VWS V14.01,2013-08-21 13:00:00,
2013-08-21 09:05:00,75.4,65.8,30.02,SSW,196,2.0,6.0,72,0.00,,---,0.00,VWS V14.01,2013-08-21 13:05:00,
2013-08-21 09:10:00,75.8,65.7,30.02,SE,131,1.0,7.0,71,0.00,,---,0.00,VWS V14.01,2013-08-21 13:10:00,
2013-08-21 09:15:00,75.8,65.7,30.02,ESE,110,0.0,7.0,71,0.00,,---,0.00,VWS V14.01,2013-08-21 13:15:00,
2013-08-21 09:20:00,76.1,66.0,30.02,WSW,247,4.0,7.0,71,0.00,,---,0.00,VWS V14.01,2013-08-21 13:20:00,
2013-08-21 09:25:00,76.5,66.4,30.02,WNW,288,0.0,7.0,71,0.00,,---,0.00,VWS V14.01,2013-08-21 13:25:00,
2013-08-21 09:30:00,76.7,66.2,30.01,SSE,164,1.0,7.0,70,0.00,,---,0.00,VWS V14.01,2013-08-21 13:30:00,
2013-08-21 09:35:00,76.7,66.2,30.01,NW,323,1.0,5.0,70,0.00,,---,0.00,VWS V14.01,2013-08-21 13:35:00,
2013-08-21 09:40:00,76.8,66.3,30.01,South,186,3.0,7.0,70,0.00,,---,0.00,VWS V14.01,2013-08-21 13:40:00,
2013-08-21 09:45:00,76.8,66.7,30.02,SSE,168,0.0,10.0,71,0.00,,---,0.00,VWS V14.01,2013-08-21 13:45:00,
2013-08-21 09:50:00,77.4,66.9,30.02,SW,219,0.0,10.0,70,0.00,,---,0.00,VWS V14.01,2013-08-21 13:50:00,
2013-08-21 09:55:00,77.6,66.2,30.02,SW,215,4.0,10.0,68,0.00,,---,0.00,VWS V14.01,2013-08-21 13:55:00,
2013-08-21 10:00:00,77.9,66.9,30.01,NE,52,1.0,10.0,69,0.00,,---,0.00,VWS V14.01,2013-08-21 14:00:00,
2013-08-21 10:05:00,78.1,66.3,30.01,SSW,209,1.0,8.0,67,0.00,,---,0.00,VWS V14.01,2013-08-21 14:05:00,
2013-08-21 10:10:00,78.5,66.6,30.01,SSW,210,7.0,8.0,67,0.00,,---,0.00,VWS V14.01,2013-08-21 14:10:00,
2013-08-21 10:15:00,78.8,66.9,30.01,WSW,243,6.0,12.0,67,0.00,,---,0.00,VWS V14.01,2013-08-21 14:15:00,
2013-08-21 10:20:00,78.8,67.4,30.01,WSW,246,3.0,12.0,68,0.00,,---,0.00,VWS V14.01,2013-08-21 14:20:00,
2013-08-21 10:25:00,78.8,66.5,30.01,SSW,212,2.0,12.0,66,0.00,,---,0.00,VWS V14.01,2013-08-21 14:25:00,
2013-08-21 10:30:00,78.8,66.5,30.02,WSW,257,6.0,12.0,66,0.00,,---,0.00,VWS V14.01,2013-08-21 14:30:00,
2013-08-21 10:35:00,78.6,66.3,30.02,ENE,68,2.0,12.0,66,0.00,,---,0.00,VWS V14.01,2013-08-21 14:35:00,
2013-08-21 10:40:00,78.6,66.7,30.02,ESE,123,3.0,13.0,67,0.00,,---,0.00,VWS V14.01,2013-08-21 14:40:00,
2013-08-21 10:45:00,78.8,66.9,30.01,WSW,244,5.0,13.0,67,0.00,,---,0.00,VWS V14.01,2013-08-21 14:45:00,
2013-08-21 10:50:00,79.2,66.4,30.01,WSW,241,1.0,13.0,65,0.00,,---,0.00,VWS V14.01,2013-08-21 14:50:00,
2013-08-21 10:55:00,79.8,67.0,30.01,SSW,209,0.0,13.0,65,0.00,,---,0.00,VWS V14.01,2013-08-21 14:55:00,
2013-08-21 11:00:00,80.1,66.8,30.00,SSE,150,3.0,14.0,64,0.00,,---,0.00,VWS V14.01,2013-08-21 15:00:00,
2013-08-21 11:05:00,80.1,66.4,30.00,NNE,27,1.0,10.0,63,0.00,,---,0.00,VWS V14.01,2013-08-21 15:05:00,
2013-08-21 11:10:00,80.5,66.8,30.00,West,260,13.0,14.0,63,0.00,,---,0.00,VWS V14.01,2013-08-21 15:10:00,
2013-08-21 11:15:00,80.7,66.5,30.00,West,275,2.0,14.0,62,0.00,,---,0.00,VWS V14.01,2013-08-21 15:15:00,
2013-08-21 11:21:00,81.2,67.4,30.00,South,175,4.0,14.0,63,0.00,,---,0.00,VWS V14.01,2013-08-21 15:21:00,
2013-08-21 11:26:00,81.4,66.7,30.00,SSW,209,7.0,14.0,61,0.00,,---,0.00,VWS V14.01,2013-08-21 15:26:00,
2013-08-21 11:30:00,78.8,66.9,30.02,WSW,251,4.0,12.0,67,0.00,,---,0.00,VWS V14.01,2013-08-21 15:30:00,
2013-08-21 11:31:00,81.4,66.7,30.00,West,264,3.0,4.0,61,0.00,,---,0.00,VWS V14.01,2013-08-21 15:31:00,
2013-08-21 11:36:00,81.8,67.1,30.00,SE,144,5.0,13.0,61,0.00,,---,0.00,VWS V14.01,2013-08-21 15:36:00,
2013-08-21 11:41:00,82.0,66.8,30.00,SW,230,3.0,13.0,60,0.00,,---,0.00,VWS V14.01,2013-08-21 15:41:00,
2013-08-21 11:46:00,82.4,67.1,30.00,SW,230,6.0,13.0,60,0.00,,---,0.00,VWS V14.01,2013-08-21 15:46:00,
2013-08-21 11:51:00,82.4,66.7,30.00,ENE,75,4.0,13.0,59,0.00,,---,0.00,VWS V14.01,2013-08-21 15:51:00,
2013-08-21 11:56:00,82.8,67.5,30.00,NNW,339,1.0,13.0,60,0.00,,---,0.00,VWS V14.01,2013-08-21 15:56:00,
2013-08-21 12:00:00,80.1,66.8,30.00,SSE,150,3.0,14.0,64,0.00,,---,0.00,VWS V14.01,2013-08-21 16:00:00,
2013-08-21 12:01:00,82.8,67.0,30.01,SSW,198,5.0,5.0,59,0.00,,---,0.00,VWS V14.01,2013-08-21 16:01:00,
2013-08-21 12:06:00,82.6,66.8,30.01,SSW,210,3.0,11.0,59,0.00,,---,0.00,VWS V14.01,2013-08-21 16:06:00,
2013-08-21 12:11:00,82.4,66.7,30.01,ESE,103,7.0,16.0,59,0.00,,---,0.00,VWS V14.01,2013-08-21 16:11:00,
2013-08-21 12:16:00,82.6,66.8,30.00,ESE,123,8.0,16.0,59,0.00,,---,0.00,VWS V14.01,2013-08-21 16:16:00,
2013-08-21 12:21:00,83.0,67.2,30.00,WNW,295,1.0,16.0,59,0.00,,---,0.00,VWS V14.01,2013-08-21 16:21:00,
2013-08-21 12:26:00,83.2,66.9,30.00,SW,215,7.0,16.0,58,0.00,,---,0.00,VWS V14.01,2013-08-21 16:26:00,
2013-08-21 12:30:00,81.4,66.7,30.00,SW,217,4.0,14.0,61,0.00,,---,0.00,VWS V14.01,2013-08-21 16:30:00,
2013-08-21 12:31:00,83.2,67.4,30.00,WNW,284,4.0,4.0,59,0.00,,---,0.00,VWS V14.01,2013-08-21 16:31:00,
2013-08-21 12:36:00,83.4,67.6,30.00,SSW,205,6.0,14.0,59,0.00,,---,0.00,VWS V14.01,2013-08-21 16:36:00,
2013-08-21 12:41:00,83.8,67.5,30.00,SW,223,3.0,14.0,58,0.00,,---,0.00,VWS V14.01,2013-08-21 16:41:00,
2013-08-21 12:46:00,83.8,67.5,30.00,SSW,202,1.0,14.0,58,0.00,,---,0.00,VWS V14.01,2013-08-21 16:46:00,
2013-08-21 12:51:00,84.1,67.2,30.00,SSE,150,0.0,14.0,57,0.00,,---,0.00,VWS V14.01,2013-08-21 16:51:00,
2013-08-21 12:56:00,84.3,67.4,30.00,North,0,1.0,14.0,57,0.00,,---,0.00,VWS V14.01,2013-08-21 16:56:00,
2013-08-21 13:00:00,82.8,67.0,30.01,SSW,198,5.0,13.0,59,0.00,,---,0.00,VWS V14.01,2013-08-21 17:00:00,
2013-08-21 13:01:00,84.1,67.2,29.99,ESE,104,2.0,6.0,57,0.00,,---,0.00,VWS V14.01,2013-08-21 17:01:00,
2013-08-21 13:06:00,84.5,67.6,29.99,SW,215,2.0,10.0,57,0.00,,---,0.00,VWS V14.01,2013-08-21 17:06:00,
2013-08-21 13:11:00,84.9,67.5,29.99,East,79,2.0,10.0,56,0.00,,---,0.00,VWS V14.01,2013-08-21 17:11:00,
2013-08-21 13:16:00,84.9,67.5,29.98,SSW,200,4.0,13.0,56,0.00,,---,0.00,VWS V14.01,2013-08-21 17:16:00,
2013-08-21 13:21:00,85.1,67.1,29.98,South,178,11.0,13.0,55,0.00,,---,0.00,VWS V14.01,2013-08-21 17:21:00,
2013-08-21 13:26:00,85.1,67.7,29.98,SE,140,1.0,13.0,56,0.00,,---,0.00,VWS V14.01,2013-08-21 17:26:00,
2013-08-21 13:30:00,83.2,67.4,30.00,SW,236,1.0,16.0,59,0.00,,---,0.00,VWS V14.01,2013-08-21 17:30:00,
2013-08-21 13:31:00,85.3,67.3,29.98,West,270,0.0,7.0,55,0.00,,---,0.00,VWS V14.01,2013-08-21 17:31:00,
2013-08-21 13:36:00,85.7,68.2,29.98,SW,229,8.0,8.0,56,0.00,,---,0.00,VWS V14.01,2013-08-21 17:36:00,
2013-08-21 13:41:00,86.1,68.6,29.98,South,188,12.0,12.0,56,0.00,,---,0.00,VWS V14.01,2013-08-21 17:41:00,
2013-08-21 13:46:00,86.3,67.7,29.97,West,263,2.0,13.0,54,0.00,,---,0.00,VWS V14.01,2013-08-21 17:46:00,
2013-08-21 13:51:00,86.3,67.7,29.97,NE,54,4.0,13.0,54,0.00,,---,0.00,VWS V14.01,2013-08-21 17:51:00,
2013-08-21 13:56:00,86.5,67.9,29.97,SE,145,2.0,13.0,54,0.00,,---,0.00,VWS V14.01,2013-08-21 17:56:00,
2013-08-21 14:00:00,84.1,67.2,29.99,SW,233,6.0,20.0,57,0.00,,---,0.00,VWS V14.01,2013-08-21 18:00:00,
2013-08-21 14:01:00,86.5,67.3,29.97,SSE,160,4.0,11.0,53,0.00,,---,0.00,VWS V14.01,2013-08-21 18:01:00,
2013-08-21 14:07:00,86.3,68.2,29.97,ENE,76,2.0,17.0,55,0.00,,---,0.00,VWS V14.01,2013-08-21 18:07:00,
2013-08-21 14:12:00,86.5,67.9,29.97,WSW,257,1.0,17.0,54,0.00,,---,0.00,VWS V14.01,2013-08-21 18:12:00,
2013-08-21 14:17:00,87.0,67.3,29.96,SSW,198,3.0,17.0,52,0.00,,---,0.00,VWS V14.01,2013-08-21 18:17:00,
2013-08-21 14:22:00,87.0,68.9,29.96,ESE,109,1.0,17.0,55,0.00,,---,0.00,VWS V14.01,2013-08-21 18:22:00,
2013-08-21 14:27:00,87.4,67.6,29.96,SSE,157,5.0,17.0,52,0.00,,---,0.00,VWS V14.01,2013-08-21 18:27:00,
2013-08-21 14:30:00,85.3,67.3,29.98,SE,128,3.0,13.0,55,0.00,,---,0.00,VWS V14.01,2013-08-21 18:30:00,
2013-08-21 14:32:00,87.2,66.9,29.95,SE,138,0.0,13.0,51,0.00,,---,0.00,VWS V14.01,2013-08-21 18:32:00,
2013-08-21 14:37:00,87.4,67.6,29.95,SW,234,9.0,13.0,52,0.00,,---,0.00,VWS V14.01,2013-08-21 18:37:00,
2013-08-21 14:42:00,87.4,67.6,29.95,SSE,148,3.0,13.0,52,0.00,,---,0.00,VWS V14.01,2013-08-21 18:42:00,
2013-08-21 14:47:00,87.6,66.7,29.95,SE,143,5.0,17.0,50,0.00,,---,0.00,VWS V14.01,2013-08-21 18:47:00,
2013-08-21 14:52:00,88.0,67.1,29.95,SSE,155,2.0,17.0,50,0.00,,---,0.00,VWS V14.01,2013-08-21 18:52:00,
2013-08-21 14:57:00,88.2,66.7,29.95,SSW,209,5.0,17.0,49,0.00,,---,0.00,VWS V14.01,2013-08-21 18:57:00,
2013-08-21 15:00:00,86.5,67.9,29.97,WNW,292,4.0,13.0,54,0.00,,---,0.00,VWS V14.01,2013-08-21 19:00:00,
2013-08-21 15:02:00,88.2,66.7,29.94,SW,222,5.0,14.0,49,0.00,,---,0.00,VWS V14.01,2013-08-21 19:02:00,
2013-08-21 15:07:00,88.4,67.4,29.94,SSE,151,10.0,14.0,50,0.00,,---,0.00,VWS V14.01,2013-08-21 19:07:00,
2013-08-21 15:12:00,88.8,67.2,29.94,South,172,6.0,14.0,49,0.00,,---,0.00,VWS V14.01,2013-08-21 19:12:00,
2013-08-21 15:17:00,88.2,66.7,29.93,SSW,192,7.0,14.0,49,0.00,,---,0.00,VWS V14.01,2013-08-21 19:17:00,
2013-08-21 15:22:00,87.8,67.4,29.93,ENE,72,1.0,14.0,51,0.00,,---,0.00,VWS V14.01,2013-08-21 19:22:00,
2013-08-21 15:27:00,88.0,67.6,29.93,SE,131,3.0,14.0,51,0.00,,---,0.00,VWS V14.01,2013-08-21 19:27:00,
2013-08-21 15:30:00,87.2,66.9,29.95,SSW,199,13.0,17.0,51,0.00,,---,0.00,VWS V14.01,2013-08-21 19:30:00,
2013-08-21 15:32:00,88.6,66.4,29.93,SW,220,3.0,6.0,48,0.00,,---,0.00,VWS V14.01,2013-08-21 19:32:00,
2013-08-21 15:37:00,88.6,67.6,29.93,South,182,2.0,12.0,50,0.00,,---,0.00,VWS V14.01,2013-08-21 19:37:00,
2013-08-21 15:42:00,88.6,67.6,29.93,East,93,5.0,12.0,50,0.00,,---,0.00,VWS V14.01,2013-08-21 19:42:00,
2013-08-21 15:47:00,88.8,67.2,29.93,North,0,3.0,12.0,49,0.00,,---,0.00,VWS V14.01,2013-08-21 19:47:00,
2013-08-21 15:52:00,89.0,67.4,29.93,West,261,1.0,14.0,49,0.00,,---,0.00,VWS V14.01,2013-08-21 19:52:00,
2013-08-21 15:57:00,88.8,67.2,29.93,SW,216,5.0,14.0,49,0.00,,---,0.00,VWS V14.01,2013-08-21 19:57:00,
2013-08-21 16:00:00,88.2,67.2,29.94,SSW,209,14.0,17.0,50,0.00,,---,0.00,VWS V14.01,2013-08-21 20:00:00,
2013-08-21 16:02:00,88.8,67.2,29.93,SW,219,3.0,7.0,49,0.00,,---,0.00,VWS V14.01,2013-08-21 20:02:00,
2013-08-21 16:07:00,89.0,67.4,29.93,South,191,8.0,10.0,49,0.00,,---,0.00,VWS V14.01,2013-08-21 20:07:00,
2013-08-21 16:12:00,89.5,67.8,29.93,WSW,246,2.0,10.0,49,0.00,,---,0.00,VWS V14.01,2013-08-21 20:12:00,
2013-08-21 16:17:00,89.5,67.8,29.93,WSW,248,4.0,12.0,49,0.00,,---,0.00,VWS V14.01,2013-08-21 20:17:00,
2013-08-21 16:22:00,89.7,68.0,29.93,ESE,117,6.0,12.0,49,0.00,,---,0.00,VWS V14.01,2013-08-21 20:22:00,
2013-08-21 16:28:00,89.5,67.8,29.93,South,185,4.0,12.0,49,0.00,,---,0.00,VWS V14.01,2013-08-21 20:28:00,
2013-08-21 16:30:00,88.6,67.0,29.93,WSW,240,2.0,14.0,49,0.00,,---,0.00,VWS V14.01,2013-08-21 20:30:00,
2013-08-21 16:33:00,89.7,66.2,29.93,SSE,161,3.0,7.0,46,0.00,,---,0.00,VWS V14.01,2013-08-21 20:33:00,
2013-08-21 16:38:00,89.3,65.8,29.93,SSW,199,2.0,14.0,46,0.00,,---,0.00,VWS V14.01,2013-08-21 20:38:00,
2013-08-21 16:43:00,89.0,66.8,29.93,ESE,114,1.0,14.0,48,0.00,,---,0.00,VWS V14.01,2013-08-21 20:43:00,
2013-08-21 16:48:00,89.0,66.2,29.92,ESE,121,8.0,14.0,47,0.00,,---,0.00,VWS V14.01,2013-08-21 20:48:00,
2013-08-21 16:53:00,89.3,67.1,29.92,SW,222,3.0,14.0,48,0.00,,---,0.00,VWS V14.01,2013-08-21 20:53:00,
2013-08-21 16:58:00,89.0,66.2,29.92,SSE,147,1.0,17.0,47,0.00,,---,0.00,VWS V14.01,2013-08-21 20:58:00,
2013-08-21 17:00:00,88.6,67.0,29.93,ENE,71,2.0,14.0,49,0.00,,---,0.00,VWS V14.01,2013-08-21 21:00:00,
2013-08-21 17:03:00,88.8,66.0,29.92,West,261,6.0,10.0,47,0.00,,---,0.00,VWS V14.01,2013-08-21 21:03:00,
2013-08-21 17:08:00,88.6,65.8,29.92,SSW,199,10.0,19.0,47,0.00,,---,0.00,VWS V14.01,2013-08-21 21:08:00,
2013-08-21 17:13:00,88.6,66.4,29.92,NE,47,3.0,19.0,48,0.00,,---,0.00,VWS V14.01,2013-08-21 21:13:00,
2013-08-21 17:18:00,88.8,67.2,29.91,SE,141,5.0,19.0,49,0.00,,---,0.00,VWS V14.01,2013-08-21 21:18:00,
2013-08-21 17:23:00,88.8,67.2,29.91,NW,319,3.0,19.0,49,0.00,,---,0.00,VWS V14.01,2013-08-21 21:23:00,
2013-08-21 17:28:00,89.3,67.1,29.91,SW,227,3.0,19.0,48,0.00,,---,0.00,VWS V14.01,2013-08-21 21:28:00,
2013-08-21 17:30:00,89.5,67.8,29.93,West,267,2.0,14.0,49,0.00,,---,0.00,VWS V14.01,2013-08-21 21:30:00,
2013-08-21 17:33:00,89.0,66.2,29.91,West,274,4.0,17.0,47,0.00,,---,0.00,VWS V14.01,2013-08-21 21:33:00,
2013-08-21 17:38:00,88.6,66.4,29.91,North,0,3.0,17.0,48,0.00,,---,0.00,VWS V14.01,2013-08-21 21:38:00,
2013-08-21 17:43:00,88.8,66.6,29.91,SSE,165,12.0,17.0,48,0.00,,---,0.00,VWS V14.01,2013-08-21 21:43:00,
2013-08-21 17:48:00,88.6,66.4,29.92,SSW,210,8.0,17.0,48,0.00,,---,0.00,VWS V14.01,2013-08-21 21:48:00,
2013-08-21 17:53:00,88.2,66.1,29.92,SW,230,5.0,17.0,48,0.00,,---,0.00,VWS V14.01,2013-08-21 21:53:00,
2013-08-21 17:58:00,88.2,67.2,29.92,North,353,1.0,17.0,50,0.00,,---,0.00,VWS V14.01,2013-08-21 21:58:00,
2013-08-21 18:00:00,88.8,66.0,29.92,WNW,287,5.0,17.0,47,0.00,,---,0.00,VWS V14.01,2013-08-21 22:00:00,
2013-08-21 18:03:00,88.0,65.9,29.92,SSW,192,4.0,13.0,48,0.00,,---,0.00,VWS V14.01,2013-08-21 22:03:00,
2013-08-21 18:08:00,88.0,65.9,29.92,SSE,161,4.0,13.0,48,0.00,,---,0.00,VWS V14.01,2013-08-21 22:08:00,
2013-08-21 18:13:00,87.8,66.9,29.92,ESE,123,5.0,13.0,50,0.00,,---,0.00,VWS V14.01,2013-08-21 22:13:00,
2013-08-21 18:18:00,87.6,66.1,29.91,SSE,168,3.0,16.0,49,0.00,,---,0.00,VWS V14.01,2013-08-21 22:18:00,
2013-08-21 18:23:00,87.4,65.9,29.91,SSW,202,0.0,16.0,49,0.00,,---,0.00,VWS V14.01,2013-08-21 22:23:00,
2013-08-21 18:28:00,87.0,66.1,29.91,SW,219,7.0,16.0,50,0.00,,---,0.00,VWS V14.01,2013-08-21 22:28:00,
2013-08-21 18:30:00,89.3,67.1,29.91,South,178,11.0,19.0,48,0.00,,---,0.00,VWS V14.01,2013-08-21 22:30:00,
2013-08-21 18:33:00,86.7,65.9,29.91,SW,236,2.0,7.0,50,0.00,,---,0.00,VWS V14.01,2013-08-21 22:33:00,
2013-08-21 18:38:00,86.7,66.4,29.91,SSE,158,1.0,12.0,51,0.00,,---,0.00,VWS V14.01,2013-08-21 22:38:00,
2013-08-21 18:43:00,86.5,66.2,29.91,West,270,0.0,12.0,51,0.00,,---,0.00,VWS V14.01,2013-08-21 22:43:00,
2013-08-21 18:48:00,86.3,66.1,29.91,WSW,253,2.0,12.0,51,0.00,,---,0.00,VWS V14.01,2013-08-21 22:48:00,
2013-08-21 18:53:00,85.9,65.7,29.91,West,274,6.0,12.0,51,0.00,,---,0.00,VWS V14.01,2013-08-21 22:53:00,
2013-08-21 18:58:00,85.7,66.1,29.91,ENE,61,0.0,12.0,52,0.00,,---,0.00,VWS V14.01,2013-08-21 22:58:00,
2013-08-21 19:00:00,88.2,66.6,29.92,SW,220,4.0,17.0,49,0.00,,---,0.00,VWS V14.01,2013-08-21 23:00:00,
2013-08-21 19:04:00,85.5,65.9,29.92,SE,141,1.0,6.0,52,0.00,,---,0.00,VWS V14.01,2013-08-21 23:04:00,
2013-08-21 19:09:00,85.3,66.2,29.92,SW,236,0.0,7.0,53,0.00,,---,0.00,VWS V14.01,2013-08-21 23:09:00,
2013-08-21 19:14:00,85.1,66.1,29.92,SW,215,0.0,7.0,53,0.00,,---,0.00,VWS V14.01,2013-08-21 23:14:00,
2013-08-21 19:19:00,84.9,65.9,29.92,West,263,1.0,7.0,53,0.00,,---,0.00,VWS V14.01,2013-08-21 23:19:00,
2013-08-21 19:24:00,84.7,65.7,29.92,SW,224,3.0,7.0,53,0.00,,---,0.00,VWS V14.01,2013-08-21 23:24:00,
2013-08-21 19:29:00,84.3,66.4,29.92,WSW,237,1.0,8.0,55,0.00,,---,0.00,VWS V14.01,2013-08-21 23:29:00,
2013-08-21 19:30:00,87.0,66.1,29.91,WSW,248,3.0,16.0,50,0.00,,---,0.00,VWS V14.01,2013-08-21 23:30:00,
2013-08-21 19:34:00,84.1,65.7,29.91,WSW,239,0.0,2.0,54,0.00,,---,0.00,VWS V14.01,2013-08-21 23:34:00,
2013-08-21 19:39:00,84.0,65.6,29.91,SSW,212,0.0,10.0,54,0.00,,---,0.00,VWS V14.01,2013-08-21 23:39:00,
2013-08-21 19:44:00,83.8,65.4,29.91,South,176,2.0,10.0,54,0.00,,---,0.00,VWS V14.01,2013-08-21 23:44:00,
2013-08-21 19:49:00,83.8,65.4,29.92,ESE,110,1.0,10.0,54,0.00,,---,0.00,VWS V14.01,2013-08-21 23:49:00,
2013-08-21 19:54:00,83.6,65.7,29.92,SE,124,1.0,10.0,55,0.00,,---,0.00,VWS V14.01,2013-08-21 23:54:00,
2013-08-21 19:59:00,83.4,65.6,29.92,SSW,199,0.0,10.0,55,0.00,,---,0.00,VWS V14.01,2013-08-21 23:59:00,
2013-08-21 20:00:00,85.7,66.1,29.92,SSE,151,6.0,12.0,52,0.00,,---,0.00,VWS V14.01,2013-08-22 00:00:00,
2013-08-21 20:04:00,83.2,65.4,29.92,SW,226,5.0,7.0,55,0.00,,---,0.00,VWS V14.01,2013-08-22 00:04:00,
2013-08-21 20:09:00,83.2,65.4,29.92,SW,234,1.0,7.0,55,0.00,,---,0.00,VWS V14.01,2013-08-22 00:09:00,
2013-08-21 20:14:00,83.0,66.2,29.92,WSW,258,2.0,7.0,57,0.00,,---,0.00,VWS V14.01,2013-08-22 00:14:00,
2013-08-21 20:19:00,82.8,66.0,29.93,West,274,2.0,7.0,57,0.00,,---,0.00,VWS V14.01,2013-08-22 00:19:00,
2013-08-21 20:24:00,82.6,66.3,29.93,SSW,199,0.0,7.0,58,0.00,,---,0.00,VWS V14.01,2013-08-22 00:24:00,
2013-08-21 20:29:00,82.4,66.2,29.93,SSW,195,1.0,7.0,58,0.00,,---,0.00,VWS V14.01,2013-08-22 00:29:00,
2013-08-21 20:30:00,84.1,65.7,29.91,SSW,209,0.0,8.0,54,0.00,,---,0.00,VWS V14.01,2013-08-22 00:30:00,
2013-08-21 20:34:00,82.4,66.2,29.93,South,174,0.0,4.0,58,0.00,,---,0.00,VWS V14.01,2013-08-22 00:34:00,
2013-08-21 20:39:00,82.2,66.0,29.93,SE,127,0.0,4.0,58,0.00,,---,0.00,VWS V14.01,2013-08-22 00:39:00,
2013-08-21 20:44:00,82.2,66.9,29.93,WSW,257,0.0,4.0,60,0.00,,---,0.00,VWS V14.01,2013-08-22 00:44:00,
2013-08-21 20:49:00,81.1,69.1,29.94,ESE,116,2.0,4.0,67,0.00,,---,0.00,VWS V14.01,2013-08-22 00:49:00,
2013-08-21 20:54:00,79.0,69.6,29.94,SE,137,1.0,4.0,73,0.01,,---,0.01,VWS V14.01,2013-08-22 00:54:00,
2013-08-21 20:59:00,78.3,69.7,29.94,SSE,151,0.0,4.0,75,0.01,,---,0.01,VWS V14.01,2013-08-22 00:59:00,
2013-08-21 21:00:00,83.4,65.6,29.92,WSW,240,0.0,10.0,55,0.00,,---,0.00,VWS V14.01,2013-08-22 01:00:00,
2013-08-21 21:04:00,77.6,69.4,29.94,SE,140,0.0,1.0,76,0.01,,---,0.01,VWS V14.01,2013-08-22 01:04:00,
2013-08-21 21:09:00,76.8,69.4,29.94,SSE,161,0.0,1.0,78,0.01,,---,0.01,VWS V14.01,2013-08-22 01:09:00,
2013-08-21 21:14:00,76.5,68.8,29.94,SE,128,3.0,3.0,77,0.01,,---,0.01,VWS V14.01,2013-08-22 01:14:00,
2013-08-21 21:19:00,76.7,68.2,29.93,SW,220,0.0,3.0,75,0.01,,---,0.01,VWS V14.01,2013-08-22 01:19:00,
2013-08-21 21:24:00,77.0,68.1,29.93,SE,126,0.0,3.0,74,0.01,,---,0.01,VWS V14.01,2013-08-22 01:24:00,
2013-08-21 21:29:00,77.2,67.9,29.93,SE,127,0.0,3.0,73,0.01,,---,0.01,VWS V14.01,2013-08-22 01:29:00,
2013-08-21 21:30:00,82.4,65.7,29.93,SSW,209,2.0,7.0,57,0.00,,---,0.00,VWS V14.01,2013-08-22 01:30:00,
2013-08-21 21:34:00,77.4,67.3,29.93,ENE,73,1.0,2.0,71,0.01,,---,0.01,VWS V14.01,2013-08-22 01:34:00,
2013-08-21 21:40:00,77.6,67.9,29.93,ESE,114,0.0,3.0,72,0.01,,---,0.01,VWS V14.01,2013-08-22 01:40:00,
2013-08-21 21:45:00,77.7,67.6,29.94,SW,226,0.0,3.0,71,0.01,,---,0.01,VWS V14.01,2013-08-22 01:45:00,
2013-08-21 21:50:00,77.7,67.1,29.94,SE,141,0.0,3.0,70,0.01,,---,0.01,VWS V14.01,2013-08-22 01:50:00,
2013-08-21 21:55:00,77.7,68.4,29.94,WNW,296,1.0,3.0,73,0.01,,---,0.01,VWS V14.01,2013-08-22 01:55:00,
2013-08-21 22:00:00,77.9,67.3,29.95,SSW,203,0.0,3.0,70,0.01,,---,0.01,VWS V14.01,2013-08-22 02:00:00,
2013-08-21 22:05:00,78.1,67.1,29.95,South,185,1.0,5.0,69,0.00,,---,0.01,VWS V14.01,2013-08-22 02:05:00,
2013-08-21 22:10:00,78.6,66.7,29.95,SW,223,1.0,6.0,67,0.00,,---,0.01,VWS V14.01,2013-08-22 02:10:00,
2013-08-21 22:15:00,78.8,66.1,29.96,SW,226,1.0,6.0,65,0.00,,---,0.01,VWS V14.01,2013-08-22 02:15:00,
2013-08-21 22:20:00,79.2,66.4,29.96,South,186,0.0,6.0,65,0.00,,---,0.01,VWS V14.01,2013-08-22 02:20:00,
2013-08-21 22:25:00,79.0,67.1,29.96,South,186,0.0,6.0,67,0.00,,---,0.01,VWS V14.01,2013-08-22 02:25:00,
2013-08-21 22:30:00,78.8,67.8,29.98,South,186,0.0,6.0,69,0.00,,---,0.01,VWS V14.01,2013-08-22 02:30:00,
2013-08-21 22:35:00,77.7,68.8,29.98,SSW,203,5.0,14.0,74,0.00,,---,0.01,VWS V14.01,2013-08-22 02:35:00,
2013-08-21 22:40:00,75.8,69.2,29.98,SSW,203,1.0,14.0,80,0.00,,---,0.01,VWS V14.01,2013-08-22 02:40:00,
2013-08-21 22:45:00,73.9,69.1,29.99,North,359,2.0,14.0,85,0.00,,---,0.01,VWS V14.01,2013-08-22 02:45:00,
2013-08-21 22:50:00,72.7,69.3,29.99,SSE,168,8.0,14.0,89,0.00,,---,0.01,VWS V14.01,2013-08-22 02:50:00,
2013-08-21 22:55:00,71.6,69.2,29.99,South,172,3.0,14.0,92,0.01,,---,0.02,VWS V14.01,2013-08-22 02:55:00,
2013-08-21 23:00:00,70.9,69.1,29.99,NW,309,1.0,14.0,94,0.01,,---,0.02,VWS V14.01,2013-08-22 03:00:00,
2013-08-21 23:05:00,70.4,68.9,29.99,ESE,109,0.0,6.0,95,0.01,,---,0.02,VWS V14.01,2013-08-22 03:05:00,
2013-08-21 23:10:00,70.3,68.8,29.99,West,270,1.0,6.0,95,0.01,,---,0.02,VWS V14.01,2013-08-22 03:10:00,
2013-08-21 23:15:00,70.1,68.6,29.98,ESE,121,0.0,6.0,95,0.02,,---,0.03,VWS V14.01,2013-08-22 03:15:00,
2013-08-21 23:20:00,69.9,68.4,29.98,South,174,0.0,6.0,95,0.02,,---,0.03,VWS V14.01,2013-08-22 03:20:00,
2013-08-21 23:25:00,69.6,68.1,29.98,SE,137,0.0,6.0,95,0.02,,---,0.03,VWS V14.01,2013-08-22 03:25:00,
2013-08-21 23:30:00,69.4,67.9,29.98,South,189,3.0,6.0,95,0.03,,---,0.04,VWS V14.01,2013-08-22 03:30:00,
2013-08-21 23:35:00,69.3,67.8,29.98,SSW,202,5.0,6.0,95,0.03,,---,0.04,VWS V14.01,2013-08-22 03:35:00,
2013-08-21 23:40:00,69.1,67.6,29.98,SSE,154,2.0,6.0,95,0.03,,---,0.04,VWS V14.01,2013-08-22 03:40:00,
2013-08-21 23:45:00,68.9,67.4,29.99,SE,141,0.0,6.0,95,0.03,,---,0.04,VWS V14.01,2013-08-22 03:45:00,
2013-08-21 23:50:00,68.8,67.3,29.99,SSE,152,3.0,6.0,95,0.03,,---,0.04,VWS V14.01,2013-08-22 03:50:00,
2013-08-21 23:55:00,68.6,67.1,29.99,ESE,109,2.0,6.0,95,0.04,,---,0.05,VWS V14.01,2013-08-22 03:55:00,